Location: Fernhill
(41.0167°S, 175.6333°E)
Time: 09:44:10
(UTC+00:00)

USA 238 - Pass Details

Date: 08 November 2025
Orbit: 887 x 1324 km, 63.4° (Epoch: 24 November)

Event Time Altitude Azimuth Distance (km) Brightness Sun altitude
Rises 09:58:46 0° 213° (SSW) 3,893 8.0 -25.7°
Reaches altitude 10° 10:01:40 10° 207° (SSW) 2,866 7.0 -26.0°
Maximum altitude 10:08:07 49° 133° (SE) 1,243 4.0 -26.6°
Enters shadow 10:09:25 43° 98° (E) 1,331 4.0 -26.7°
